DELTA 1 DEB

Satellite information

Favourite Embed

Satellite Type and Status

DEBRISIN ORBIT

Key statistics

Satellite DELTA 1 DEB at a glance.

Uptime

17291

Days in orbit

Revolutions

≈ 14.9

Per day

Orbit

SSO

Sun Synchronous Orbit

Inclination

98.8

Latest

Satellite identification and parameters

Extended collection of information and parameters for DELTA 1 DEB.

Object identification

Identified? True

Debris? True

Object name: DELTA 1 DEB

International designator: 1978-026BU

Object number (NORAD): 12227

Object ID (CCSDS): 12227

Country: UNITED STATES OF AMERICA (US)

Current information (Y/N): Y

RCS size: SMALL

Orbital parameters

Period: 96.453 minutes

Inclination: 98.7767 deg

SMA: 6966.843 km

Apoapsis: 637.708 km

Periapsis: 539.708 km

RAAN: 339.1765 deg

Eccentricy: 0.0070333

Argument of periapsis: 244.4154 deg

Mean anomaly: 114.9782 deg

Mean motion: 14.92961945 rev/day

Mean motion (dot): 0.00004482 rev/day2

B* drag term: 0.0004182 1/REarth

Two-line elements (TLE)

Creation date: July 6, 2025, 6:05 p.m.

Reference frame: TEME

Reference center: EARTH

Epoch: July 6, 2025, 9:06 a.m. UTC

TLE line 0: 0 DELTA 1 DEB

TLE line 1: 1 12227U 78026BU 25187.37981330 .00004482 00000-0 41820-3 0 9990

TLE line 2: 2 12227 98.7767 339.1765 0070333 244.4154 114.9782 14.92961945348225

Live tracking on map

Real-time ground track for satellite DELTA 1 DEB.

In-orbit conjunctions

A list of the most updated potential collisions computed for object DELTA 1 DEB.

Target Orbit TCA Probability of collision Miss distance Type
COSMOS 2098 LEO 2024-08-26 07:01:12 0.0007510696 156.0 (m) PAYLOAD
OBJECT M SSO 2024-06-12 22:44:25 0.0002759485 347.0 (m) UNKNOWN

Associated space launch

Earth observation satellite

DELTA 1 DEB was lifted into orbit during the mission ‘Delta 2910 | Landsat 3’, on board a Delta 2910 space rocket.

The launch took place on March 5, 1978, 5:54 p.m. from Space Launch Complex 2W.

For more information about the launch, click the button.

Launch to space Delta 2910 | Landsat 3
Delta 2910 | Landsat 3

Agency: N/A

Status: Launch Successful

Launch date: March 5, 1978, 5:54 p.m. UTC

Rocket: Delta 2910

Launch pad: Space Launch Complex 2W

Location: Vandenberg SFB, CA, USA

...

Latest news about this satellite

There are no fresh news available about this satellite. Check back as we update our databases every day.


Newsletter sign-up

Weekly statistics, charts and insights to help you stay on top of the space industry.